Regional Weather Roundup
Issued by NWS

Home | Current Version | Previous Version | Text Only | Print | Product List | Glossary On
Versions: 1 2 3 4 5 6 7 8 9 10 11 12 13 14 15 16 17 18 19 20 21 22 23 24 25 26 27 28
000
ASCA42 TJSJ 300110
RWRPR
PUERTO RICO/U.S. VIRGIN ISLANDS HOURLY WEATHER ROUNDUP
NATIONAL WEATHER SERVICE SAN JUAN PR
900 PM AST FRI APR 29 2016

PRZ001-004-300200-
PUERTO RICO

CITY           SKY/WX    TMP DP  RH WIND       PRES   REMARKS
SAN JUAN LMM   PTCLDY    79  73  83 CALM      29.94R
AGUADILLA      PTCLDY    75  72  88 CALM      29.94R
CEIBA          CLEAR     75  73  94 CALM      29.96R
$$

PRZ006-007-300200-
U.S. VIRGIN ISLANDS

CITY           SKY/WX    TMP DP  RH WIND       PRES   REMARKS
CHARLOTTE AMA  CLEAR     82  77  83 SE8       29.94R HX  91
CHRISTIANSTED  CLEAR     82  73  74 SE8       29.96R
$$

HOURLY WEATHER ROUNDUP FOR THE NEWS MEDIA

CITY           SKY/WX    TMP DP  RH WIND       PRES   REMARKS
ORLANDO        CLOUDY    78  69  73 NE6       29.97R
NEW YORK       CLOUDY    48  41  76 E9        30.14R
NEWARK         CLOUDY    50  35  56 E7        30.12R
CHICAGO        CLOUDY    44  38  79 NE9       30.14R
HARTFORD       CLOUDY    45  32  60 E7        30.15R
BOSTON         CLOUDY    46  32  58 SE10      30.15R
DALLAS         LGT RAIN  74  71  91 SE8       29.57R FOG
PHILADELPHIA   CLOUDY    49  40  71 E10       30.11R
LOS ANGELES    MOSUNNY   60  52  74 W13       29.94F
WASHINGTON DC  LGT RAIN  53  49  86 NE5       30.08R



USA.gov is the U.S. government's official web portal to all federal, state and local government web resources and services.